Location: *
(46.3500°N, 10.9000°E)
Time: 10:04:00
(UTC+00:00)

N. Korean satellite - Visible Passes

Search period start: 27 February 2021 00:00
Search period end: 09 March 2021 00:00
Orbit: 451 x 503 km, 97.2° (Epoch: 26 February)

Date Brightness Start Highest point End Pass type
(mag) Time Alt. Az. Time Alt. Az. Time Alt. Az.
27 Feb 8.9 04:06:00 10° NE 04:08:57 25° E 04:11:55 10° SSE visible
28 Feb 9.9 03:40:26 10° ENE 03:42:01 13° E 03:43:37 10° ESE visible
28 Feb 6.8 05:12:12 10° N 05:15:35 46° WNW 05:18:58 10° SSW visible
01 Mar 6.6 04:45:22 10° NNE 04:48:53 80° ESE 04:52:26 10° S visible
02 Mar 8.2 04:18:49 10° NNE 04:22:06 36° E 04:25:24 10° SSE visible
03 Mar 9.5 03:52:43 10° NE 03:55:12 18° E 03:57:42 10° SE visible
04 Mar 6.5 04:58:24 10° N 05:01:56 69° WNW 05:05:29 10° SSW visible
05 Mar 7.4 04:31:41 10° NNE 04:35:10 53° E 04:38:42 10° S visible
06 Mar 9.0 04:05:19 10° NE 04:08:19 25° E 04:11:21 10° SSE visible
07 Mar 9.9 03:39:40 10° ENE 03:41:22 13° E 03:43:03 10° ESE visible
07 Mar 6.8 05:11:28 10° N 05:14:54 47° WNW 05:18:23 10° SSW visible
08 Mar 6.7 04:44:35 10° NNE 04:48:11 79° ESE 04:51:48 10° S visible
